Theta_e
289 289 290 290 289 289 289 289 289 290 290 291 291 292 293 295 295 296 298 301 298 299 300 301 303 306 306 310 318 321 320 321 321 320 320 320 320 321 321 320 320 319 318
287 287 288 287 287 287 287 287 287 287 288 289 289 290 291 292 293 295 296 294 295 295 296 297 298 299 300 301 305 307 308 314 321 320 318 320 320 320 320 320 319 318 318
285 286 285 285 284 285 284 285 285 285 286 286 287 288 289 290 292 292 291 292 292 292 293 294 295 296 298 299 297 299 302 304 307 311 316 318 319 319 319 320 319 319 318
284 284 283 283 283 283 283 283 283 283 284 284 285 286 287 288 289 288 289 289 290 291 291 292 293 294 294 294 296 297 298 300 303 305 308 311 316 318 318 318 318 318 317
283 282 282 282 281 281 281 281 282 282 282 283 284 285 286 286 286 286 286 286 287 288 290 290 291 291 291 292 292 293 294 295 295 297 300 304 308 311 314 316 315 316 317
282 281 280 280 280 280 280 280 281 281 282 283 283 284 284 285 284 284 284 284 287 287 288 287 288 289 289 289 290 290 290 292 294 295 297 299 300 303 307 309 312 313 313
280 280 279 279 279 279 279 280 280 281 281 282 282 283 283 283 283 283 282 283 284 284 284 284 284 285 285 285 286 286 287 290 291 292 294 296 297 299 302 303 306 310 312
279 279 278 278 278 278 279 279 279 280 280 281 281 281 281 282 281 281 281 282 281 282 282 282 282 282 283 283 283 283 283 284 286 289 291 292 293 294 296 297 299 298 302
278 277 277 276 277 277 278 278 278 279 279 279 280 280 280 280 280 280 280 280 280 280 280 280 280 280 280 281 281 281 282 283 284 285 286 288 289 291 292 293 293 295 299
276 275 275 275 275 276 277 277 277 278 278 278 279 279 279 279 278 278 278 279 279 279 279 279 279 279 279 280 280 280 281 281 282 282 285 286 287 289 291 292 293 294 297
273 273 273 273 273 275 275 275 276 276 277 277 278 278 278 278 276 277 277 277 277 277 277 277 276 277 278 278 279 278 279 279 278 279 282 286 289 290 291 292 293 295 297
271 271 271 271 272 273 273 274 274 275 275 276 276 276 276 275 274 275 275 275 275 275 275 275 275 275 276 276 276 276 276 275 275 276 277 278 280 282 286 292 293 295 296
269 269 270 270 271 271 272 273 273 273 274 274 274 274 274 273 273 273 273 274 273 273 273 272 273 272 273 273 273 273 272 272 272 273 274 275 275 277 278 281 292 295 296
268 268 269 269 269 270 270 271 271 271 272 272 272 272 272 271 271 271 272 272 272 272 271 270 269 270 270 270 269 270 270 270 270 271 271 272 273 274 276 278 280 292 295
267 268 268 268 269 269 269 269 269 269 270 270 270 270 270 269 270 270 272 271 271 270 269 266 266 266 266 267 266 267 267 267 268 268 269 270 271 272 274 275 276 279 292
266 267 267 267 267 267 267 268 268 268 268 268 269 269 268 268 269 269 270 269 269 268 266 264 264 264 264 264 264 264 265 265 265 265 267 267 269 270 271 273 275 277 281
264 264 265 266 266 265 266 266 266 266 266 267 267 267 267 267 267 268 269 268 266 265 263 263 262 262 262 262 262 262 262 263 262 263 264 265 266 268 268 271 273 275 277
263 263 263 264 264 264 264 264 264 264 264 264 264 264 265 265 265 267 266 264 261 261 261 261 260 260 260 260 260 260 260 260 261 261 262 263 264 265 266 268 271 273 274
262 262 262 262 262 262 262 263 263 263 263 263 262 262 262 262 263 264 263 260 260 260 260 259 259 259 258 258 258 258 258 259 259 260 260 261 262 263 265 267 270 271 273
261 261 261 261 261 261 261 261 261 261 261 261 261 261 260 260 262 260 259 259 259 259 258 258 258 257 257 257 257 257 257 257 258 258 259 260 261 261 263 266 269 270 271
261 260 260 260 260 260 260 260 260 260 260 260 260 260 262 263 259 258 258 258 258 258 257 257 256 256 256 256 255 255 256 256 256 257 258 259 259 260 262 267 268 269 270
260 260 259 259 259 259 259 259 258 258 258 258 259 258 260 258 258 257 257 257 257 256 256 256 255 255 255 255 254 254 255 255 256 256 256 257 258 260 263 267 267 268 269
259 259 259 259 258 258 258 258 258 258 258 258 258 257 257 257 257 257 257 256 256 256 255 255 255 255 255 255 254 254 254 255 255 255 255 256 258 260 264 267 267 268 268
259 258 258 258 258 257 257 257 257 257 257 257 257 257 257 257 257 256 256 256 256 255 255 255 254 254 255 255 255 256 256 257 256 255 256 256 259 264 265 266 267 267 268
258 258 258 257 257 257 257 257 257 257 257 257 257 257 257 257 256 256 256 255 255 255 255 255 254 254 255 256 256 258 258 259 258 257 259 260 262 263 265 266 266 267 268
258 257 257 257 257 257 256 256 257 257 257 257 257 256 256 256 256 256 256 255 255 254 254 254 255 255 255 256 258 259 259 259 257 260 261 262 263 264 265 266 266 266 267
Wind_Speed
9 10 10 11 12 11 12 13 14 14 15 15 16 16 16 17 18 18 19 17 21 22 23 26 26 27 29 30 31 28 37 30 16 35 31 33 35 36 36 40 44 44 48
8 8 9 10 12 12 13 14 14 15 14 15 15 15 16 16 17 17 18 20 21 23 23 24 25 26 28 26 28 34 33 36 28 12 34 32 34 35 38 41 41 47 48
7 8 9 10 11 12 13 13 14 14 14 15 15 16 16 16 16 17 18 20 20 21 23 25 26 27 25 28 33 32 32 35 35 32 31 34 31 36 35 35 41 44 44
6 7 8 10 11 11 12 13 13 14 14 15 15 15 16 16 15 21 22 23 23 23 23 23 23 23 26 29 29 29 31 33 31 30 30 31 32 30 32 32 32 34 39
4 5 7 8 9 10 11 12 13 14 14 15 15 16 17 16 19 26 26 26 26 25 23 23 23 26 25 24 29 29 31 32 33 31 29 30 31 30 25 27 28 28 37
2 4 6 7 8 10 11 12 13 14 15 15 16 17 17 16 21 24 26 27 23 24 26 26 27 26 28 31 30 32 31 32 33 30 30 24 33 33 34 34 35 23 11
3 4 6 7 8 10 11 12 13 13 13 14 14 15 16 16 21 25 27 23 23 24 26 29 30 29 33 34 37 37 35 31 31 34 36 35 37 35 34 35 34 31 32
3 3 5 7 8 10 11 12 12 12 13 14 14 14 15 15 21 24 27 22 23 24 25 28 29 31 29 35 41 42 41 37 34 35 38 47 42 43 39 40 40 42 48
4 3 5 6 7 8 10 12 12 12 13 13 14 15 16 16 20 24 26 26 26 26 28 28 30 30 32 37 42 43 46 44 40 40 43 48 52 53 48 43 40 27 20
3 3 5 6 7 8 9 11 11 11 11 12 13 13 13 14 18 21 24 25 25 27 27 28 28 30 35 39 38 37 40 43 47 49 45 44 45 47 43 38 40 28 24
2 3 4 5 7 7 8 9 10 11 11 11 12 13 13 14 19 20 24 26 28 30 28 28 29 32 39 37 34 31 33 45 47 40 40 38 38 40 41 38 38 37 36
1 2 3 4 5 7 9 9 9 10 11 12 14 14 13 15 18 18 23 25 28 29 29 30 32 38 35 34 31 31 33 34 32 36 34 34 34 38 40 43 42 41 46
1 2 3 5 4 6 8 9 9 10 11 12 14 15 16 17 18 18 24 27 27 29 29 33 35 34 31 29 28 30 29 28 30 31 31 34 38 41 45 45 45 45 47
2 3 4 5 6 6 6 7 8 9 10 12 14 16 17 18 18 21 26 28 27 28 30 32 31 28 26 27 29 27 26 27 28 28 31 35 38 39 40 40 43 40 36
1 3 4 5 6 7 6 6 7 7 9 13 13 15 17 18 19 25 27 29 30 30 30 27 24 25 27 27 29 29 29 29 29 31 33 35 35 38 39 39 40 42 31
1 2 3 4 5 6 7 8 7 8 11 12 12 13 17 18 21 25 25 27 28 26 23 19 21 21 23 26 27 31 30 31 32 35 33 32 34 35 39 41 38 35 29
2 3 3 4 5 7 8 9 13 16 12 13 13 16 17 19 23 24 25 27 23 21 16 17 19 21 24 25 26 27 30 31 33 31 32 33 34 35 37 35 35 33 32
3 4 4 5 6 7 8 10 11 13 16 18 17 18 18 19 24 24 25 25 22 18 16 19 21 22 24 25 27 28 30 32 31 32 31 32 32 33 34 33 34 33 31
2 3 5 6 7 9 10 10 10 12 14 17 18 18 18 20 21 20 20 18 19 19 19 19 21 23 24 25 26 28 28 30 32 32 31 31 32 33 34 33 35 38 37
4 5 7 7 8 8 8 10 11 12 14 15 16 17 19 21 19 19 16 17 19 20 21 22 23 24 24 25 26 27 28 30 30 30 31 32 32 33 33 34 35 35 34
5 6 7 8 8 9 10 11 12 14 15 16 18 18 19 22 20 18 18 18 19 23 24 24 25 26 26 26 27 27 28 30 30 31 31 32 33 33 36 33 35 36 34
7 8 9 10 11 12 12 14 17 15 17 18 19 20 20 20 18 19 20 21 22 25 27 25 26 28 28 28 28 28 29 31 32 31 33 33 34 34 35 34 35 35 35
8 9 11 12 14 15 17 16 16 17 18 19 21 21 19 19 20 22 24 25 27 28 27 28 29 30 32 31 31 29 30 33 34 34 34 35 35 34 35 33 34 34 33
11 12 13 15 16 16 18 19 18 20 21 21 21 21 22 22 22 24 26 27 28 30 31 30 31 32 33 34 32 33 34 36 36 36 35 35 36 35 33 32 32 34 34
13 15 16 18 18 18 19 20 21 21 21 21 22 23 25 26 26 27 28 28 29 31 33 33 34 34 33 33 34 33 34 34 35 35 37 34 34 37 32 31 32 33 32
16 17 19 19 20 21 21 21 22 22 23 24 25 25 26 27 29 30 30 31 31 32 34 36 36 35 35 35 32 32 34 35 34 34 34 34 33 32 30 33 31 31 30
Wind_Direction
15 9 8 4 2 3 3 357 353 350 349 348 346 345 345 347 347 349 347 350 346 341 341 334 328 322 326 326 314 286 267 251 251 270 269 271 266 266 263 266 265 259 259
8 6 7 3 2 4 0 357 355 354 354 352 352 351 351 352 351 353 352 348 344 344 339 336 335 334 332 328 331 318 313 315 278 266 285 280 274 267 262 267 261 259 261
11 10 8 6 5 4 359 357 357 356 357 359 360 360 357 355 357 357 350 346 342 338 337 335 332 335 336 335 328 319 323 321 314 313 312 298 277 278 277 267 260 258 257
15 11 11 7 4 2 359 359 359 359 359 360 1 359 359 359 3 357 351 345 339 336 335 334 333 330 332 325 322 324 322 317 317 317 307 300 299 290 274 264 265 258 255
22 18 12 5 4 2 3 2 2 3 1 0 360 1 1 3 360 356 351 343 338 336 336 334 331 326 326 325 321 319 321 320 315 312 305 306 295 294 292 288 269 270 268
51 22 10 8 8 7 5 4 4 4 3 1 1 358 358 360 357 355 351 343 341 340 339 337 335 335 330 324 317 312 309 308 307 305 299 294 293 289 295 288 291 287 276
73 33 15 10 7 4 2 3 2 360 359 359 359 358 356 355 356 354 352 349 345 343 339 337 336 335 332 330 328 324 317 310 298 295 292 289 298 300 306 302 298 295 275
88 51 24 15 6 359 357 358 356 354 354 354 351 353 352 353 353 354 352 350 344 342 340 335 333 330 333 333 328 323 318 315 308 299 289 288 286 289 289 294 292 290 290
86 49 20 8 360 354 352 349 349 347 347 347 344 345 349 348 350 352 353 349 342 339 336 332 331 331 333 334 329 322 316 312 309 303 295 290 290 288 286 286 279 281 276
73 24 2 352 344 341 341 339 337 336 333 335 335 338 339 339 345 347 348 345 338 333 332 331 330 329 329 329 326 320 314 313 317 312 305 294 292 291 290 281 278 269 269
36 357 345 332 332 328 328 333 332 330 330 330 333 335 337 340 342 341 346 344 337 330 327 326 325 327 326 325 325 322 316 318 315 316 316 313 300 290 287 284 276 266 269
6 335 306 324 333 324 328 333 335 336 334 334 335 335 337 337 337 336 340 338 334 329 326 323 321 322 322 322 324 325 326 325 323 323 323 322 320 317 315 295 280 269 265
297 310 326 329 330 335 333 336 339 343 338 335 334 332 334 335 333 333 337 335 332 329 324 320 319 322 323 324 325 329 334 333 331 328 325 322 317 314 313 314 294 276 272
345 322 328 334 338 340 339 338 339 338 337 337 333 335 333 330 330 336 334 336 331 329 327 323 324 324 326 327 330 331 335 334 331 325 322 319 319 320 317 318 317 300 288
345 323 339 341 339 334 331 325 321 316 329 328 325 325 324 325 326 328 327 331 329 327 324 326 328 332 331 332 333 331 332 334 333 330 327 328 323 324 319 320 317 315 295
19 343 340 330 326 325 324 322 318 313 318 320 318 320 319 312 319 325 324 326 325 326 328 326 326 327 327 328 329 329 329 331 332 329 325 326 323 324 322 319 321 315 314
348 335 328 330 329 328 329 328 324 326 325 321 319 319 317 317 323 326 326 327 325 328 329 324 322 325 325 326 323 324 323 325 325 324 323 322 323 321 325 319 320 319 314
345 335 332 318 318 321 327 325 322 317 315 315 318 319 317 318 326 326 325 322 330 333 327 324 319 320 321 322 321 321 321 323 323 322 321 321 321 321 322 319 321 319 318
308 288 304 314 317 316 320 309 302 301 303 304 309 314 316 320 321 319 323 323 318 317 320 315 314 314 315 316 316 316 317 318 318 318 320 321 320 321 319 316 321 319 320
292 305 316 318 308 304 298 298 301 299 296 296 302 304 308 318 315 316 312 309 308 308 311 312 312 311 311 313 314 315 315 316 318 318 320 320 319 319 316 314 323 322 322
281 296 298 307 294 294 296 294 290 290 291 293 291 295 305 310 307 301 302 301 301 304 306 307 308 308 309 310 312 311 311 311 313 315 317 318 318 316 316 316 322 322 322
284 287 292 294 297 296 291 288 293 288 286 287 291 295 303 298 294 294 296 298 298 300 306 302 301 303 305 307 309 306 306 307 310 314 314 315 316 314 315 323 326 326 326
279 280 286 291 293 292 294 292 283 281 282 285 290 291 291 288 290 294 297 301 304 305 304 305 303 304 313 311 313 308 301 303 307 310 309 310 311 311 317 322 326 326 327
272 275 277 282 286 283 280 282 279 281 284 283 285 287 289 292 292 294 298 301 302 305 308 306 307 309 312 315 316 315 314 317 317 312 317 306 305 314 315 322 325 325 325
274 272 272 273 276 277 278 281 282 281 282 283 284 288 293 295 295 297 299 301 302 304 308 310 309 309 313 315 314 316 320 323 324 323 317 308 308 312 316 319 322 324 326
272 270 268 268 269 275 275 274 276 279 280 283 286 287 289 290 294 298 300 302 302 304 306 309 311 312 313 314 315 321 324 325 316 316 313 310 308 312 318 322 321 324 327